O3B FM8 (40082 NORAD) Tracking and Keplerian Element Data

This shows tracking and keplerian element data for the satellite.

Feedback or suggestion? Click here.




ElementValue
Catalog40082
NameO3B FM8
Epoch Orbit7343
Epoch Day198.70562945
Epoch Year2018
RAAN17.0904
Inclination0.0455
Eccentricity0.0002614
Argument of Perigee98.4923
Mean Anonmoly244.4407
Mean Motion5.00115087
Decay Rate-2.7E-07
L11 40082U 14038D 18198.70562945 -.00000027 00000-0 00000-0 0 9995
L22 40082 0.0455 17.0904 0002614 98.4923 244.4407 5.00115087 73438

Live tracking and technical data element details for O3B FM8 (NORAD 40082). O3B FM8 can be tracked NOW for your location showing map with azimuth and elevation plus other details from your city location.

Track the satellite on the map from your city or location and see movement details for azimuth, elevation, latitude, longitude, range, height, and movement on the map or in text.







IsCatalogInMostPopularTable: catalog: 40082, numindb: 58
Update: records affected: 1



GetName: 40082 O3B FM8

Hit Count: updated at: Wed, 18 Jul 2018 20:32:53 GMT